Location: Bauerbach
(50.4985°N, 10.3912°E)
Time: 09:10:47
(UTC+00:00)

COSMOS 2406 - Pass Details

Date: 13 January 2026
Orbit: 843 x 861 km, 71.0° (Epoch: 15 February)

Event Time Altitude Azimuth Distance (km) Brightness Sun altitude
Exits shadow 05:13:35 - 340° (NNW) 2,542 5.4 -18.5°
Reaches altitude 10° 05:13:43 10° 341° (NNW) 2,495 5.4 -18.5°
Maximum altitude 05:19:02 38° 48° (NE) 1,293 4.5 -17.6°
Drops below altitude 10° 05:24:21 10° 116° (ESE) 2,492 6.9 -16.8°
Sets 05:26:59 0° 125° (SE) 3,427 7.7 -16.4°
